Location: Banios
(43.0451°N, 0.2335°E)
Time: 12:59:24
(UTC+00:00)

CZ-2C R/B - Pass Details

Date: 25 January 2021
Orbit: 390 x 584 km, 35.0° (Epoch: 25 February)

Event Time Altitude Azimuth Distance (km) Brightness Sun altitude
Exits shadow 06:09:10 12° 240° (WSW) 1,705 3.4 -13.2°
Maximum altitude 06:12:13 25° 189° (S) 1,119 2.9 -12.6°
Drops below altitude 10° 06:15:32 10° 133° (SE) 1,741 4.9 -12.0°
Sets 06:17:58 0° 120° (ESE) 2,587 6.5 -11.6°
